sat.trackr.live / text

‹ back to catalog

STARLINK-33722

NORAD 63571 · 2025-076C

PAYLOAD ACTIVE UNKNOWN

§ Identity

Operator
Country
US
Launch date
2025-04-14
Launch site
AFETR
Launch vehicle
Mass (kg)
RCS (m²)

Purposes: comms

External: N2YO · Heavens-Above · Gunter

§ Orbital elements

Epoch: 2026-09-20T10:08:12.695424Z

Period
94.27 min
Inclination
43.0002°
Eccentricity
0.0000892
Mean motion
15.27588294 rev/d
Perigee alt
482.4 km
Apogee alt
483.6 km
Semi-major
6,861.2 km
B*
3.7963e-4
RAAN
301.8287°
Arg perigee
276.0764°
Mean anomaly
83.9986°
Rev number
8,160

§ Raw data

STARLINK-337221 63571U 25076C   26263.42236916  .00010202  00000+0  37963-3 0  99992 63571  43.0002 301.8287 0000892 276.0764  83.9986 15.27588294 81602

JSON: /api/v1/satellites/63571 · /tle

For live sub-satellite position, see the globe view (requires WebGL).

§ Visibility from observer

Set your observer location to see the next 7 days of passes ≥ 10°. The values pass through the URL so the page stays shareable.

No JS? Fill the form by hand. The geolocation button needs JavaScript.